Weather History for Kearney, NE

Change the Weather History Date:

Wednesday, June 5, 2013

  Actual Average Record
Temperature  
Mean Temperature 62 °F 66 °F  
Max Temperature 72 °F 78 °F 99 °F (1934)
Min Temperature 52 °F 55 °F 40 °F (2000)
Degree Days  
Heating Degree Days 3 2  
Month to date heating degree days 13  
Since 1 June heating degree days 13  
Cooling Degree Days 0 4  
Growing Degree Days 10 (Base 50)    
Moisture  
Dew Point 46 °F    
Average Humidity 64    
Maximum Humidity 83    
Minimum Humidity 44    
Precipitation  
Precipitation 0.00 in - 2.48 in (1967)
Sea Level Pressure  
Sea Level Pressure 30.09 in    
Wind  
Wind Speed 14 mph (North)    
Max Wind Speed 21 mph    
Max Gust Speed 28 mph    
Visibility 10 miles    
Events      
T = Trace of Precipitation, MM = Missing Value Source: NWS Daily Summary

Daily Weather History Graph

Daily Weather History Graph

Search for Another Location

Airport:

Trip Planner

Search our weather history database for the weather conditions in past years. The results will help you decide how hot, cold, wet, or windy it might be!

Date:

Astronomy

Jun. 05, 2013 Rise Set
Actual Time 6:05 AM CDT 9:04 PM CDT
Civil Twilight 5:32 AM CDT 9:37 PM CDT
Nautical Twilight 4:50 AM CDT 10:18 PM CDT
Astronomical Twilight 4:02 AM CDT 11:07 PM CDT
Moon 4:11 AM CDT (6/5) 6:31 PM CDT (6/5)
Length of Visible Light 16h 04m
Length of Day
14h 58m
Waning Crescent, 8% of the Moon is Illuminated
Jun 5
Waning Crescent
Jun 8
New
Jun 16
First Quarter
Jun 23
Full
Jun 29
Last Quarter

Hourly Weather History & Observations

Time (CDT) Temp. Dew Point Humidity Pressure Visibility Wind Dir Wind Speed Gust Speed Precip Events Conditions
12:15 AM 64.4 °F 51.8 °F 64% 30.03 in 10.0 mi NE 12.7 mph - N/A   Clear
12:35 AM 64.4 °F 51.8 °F 64% 30.02 in 10.0 mi NNE 13.8 mph - N/A   Clear
12:55 AM 62.6 °F 51.8 °F 68% 30.04 in 10.0 mi NNE 11.5 mph - N/A   Clear
1:15 AM 62.6 °F 51.8 °F 68% 30.05 in 10.0 mi NNE 11.5 mph - N/A   Scattered Clouds
1:35 AM 62.6 °F 51.8 °F 68% 30.06 in 10.0 mi NNE 11.5 mph - N/A   Mostly Cloudy
1:55 AM 62.6 °F 51.8 °F 68% 30.07 in 10.0 mi NNE 16.1 mph - N/A   Overcast
2:15 AM 60.8 °F 50.0 °F 68% 30.07 in 10.0 mi NNE 15.0 mph - N/A   Overcast
2:35 AM 60.8 °F 50.0 °F 68% 30.06 in 10.0 mi North 19.6 mph - N/A   Overcast
2:55 AM 60.8 °F 48.2 °F 63% 30.07 in 10.0 mi North 18.4 mph - N/A   Overcast
3:15 AM 59.0 °F 46.4 °F 63% 30.08 in 10.0 mi North 20.7 mph 26.5 mph N/A   Overcast
3:35 AM 57.2 °F 44.6 °F 63% 30.07 in 10.0 mi North 24.2 mph 31.1 mph N/A   Overcast
3:55 AM 57.2 °F 46.4 °F 67% 30.07 in 10.0 mi NNE 15.0 mph - N/A   Overcast
4:15 AM 57.2 °F 46.4 °F 67% 30.07 in 10.0 mi North 17.3 mph - N/A   Overcast
4:35 AM 55.4 °F 44.6 °F 67% 30.07 in 10.0 mi North 17.3 mph 21.9 mph N/A   Overcast
4:55 AM 55.4 °F 44.6 °F 67% 30.09 in 10.0 mi North 20.7 mph 27.6 mph N/A   Overcast
5:15 AM 53.6 °F 46.4 °F 77% 30.08 in 10.0 mi NNE 17.3 mph 26.5 mph N/A   Overcast
5:35 AM 51.8 °F 46.4 °F 82% 30.10 in 10.0 mi North 16.1 mph - N/A   Overcast
5:55 AM 53.6 °F 46.4 °F 77% 30.12 in 10.0 mi North 9.2 mph - N/A   Overcast
6:15 AM 51.8 °F 44.6 °F 76% 30.13 in 10.0 mi North 10.4 mph - N/A   Mostly Cloudy
6:35 AM 51.8 °F 44.6 °F 76% 30.13 in 10.0 mi North 10.4 mph - N/A   Mostly Cloudy
6:55 AM 51.8 °F 46.4 °F 82% 30.14 in 10.0 mi North 12.7 mph - N/A   Overcast
7:15 AM 51.8 °F 44.6 °F 76% 30.13 in 10.0 mi North 13.8 mph - N/A   Overcast
7:35 AM 51.8 °F 44.6 °F 76% 30.12 in 10.0 mi North 15.0 mph - N/A   Mostly Cloudy
7:55 AM 53.6 °F 44.6 °F 72% 30.13 in 10.0 mi North 13.8 mph - N/A   Mostly Cloudy
8:15 AM 53.6 °F 44.6 °F 72% 30.12 in 10.0 mi North 17.3 mph - N/A   Overcast
8:35 AM 55.4 °F 44.6 °F 67% 30.12 in 10.0 mi North 18.4 mph 24.2 mph N/A   Mostly Cloudy
8:55 AM 55.4 °F 42.8 °F 63% 30.13 in 10.0 mi North 18.4 mph - N/A   Overcast
9:15 AM 55.4 °F 44.6 °F 67% 30.13 in 10.0 mi NNW 18.4 mph - N/A   Mostly Cloudy
9:35 AM 55.4 °F 42.8 °F 63% 30.14 in 10.0 mi NNW 17.3 mph 20.7 mph N/A   Mostly Cloudy
9:55 AM 57.2 °F 42.8 °F 59% 30.13 in 10.0 mi NNW 17.3 mph - N/A   Mostly Cloudy
10:15 AM 57.2 °F 42.8 °F 59% 30.14 in 10.0 mi NNW 15.0 mph 19.6 mph N/A   Overcast
10:35 AM 59.0 °F 42.8 °F 55% 30.13 in 10.0 mi NNW 15.0 mph 21.9 mph N/A   Scattered Clouds
10:55 AM 57.2 °F 42.8 °F 59% 30.12 in 10.0 mi North 15.0 mph - N/A   Mostly Cloudy
11:15 AM 59.0 °F 42.8 °F 55% 30.12 in 10.0 mi NNW 13.8 mph - N/A   Overcast
11:35 AM 60.8 °F 42.8 °F 52% 30.12 in 10.0 mi NW 16.1 mph 20.7 mph N/A   Overcast
11:55 AM 60.8 °F 44.6 °F 55% 30.12 in 10.0 mi NNW 16.1 mph - N/A   Overcast
12:15 PM 60.8 °F 44.6 °F 55% 30.11 in 10.0 mi NNW 12.7 mph 16.1 mph N/A   Overcast
12:35 PM 59.0 °F 48.2 °F 67% 30.11 in 10.0 mi NNW 17.3 mph - N/A   Overcast
12:55 PM 60.8 °F 46.4 °F 59% 30.10 in 10.0 mi NNW 18.4 mph 23.0 mph N/A   Overcast
1:15 PM 64.4 °F 48.2 °F 56% 30.10 in 9.0 mi NNW 15.0 mph - N/A   Scattered Clouds
1:35 PM 64.4 °F 46.4 °F 52% 30.10 in 10.0 mi NNW 16.1 mph 24.2 mph N/A   Clear
1:55 PM 64.4 °F 46.4 °F 52% 30.09 in 10.0 mi NNW 13.8 mph - N/A   Scattered Clouds
2:15 PM 66.2 °F 46.4 °F 49% 30.08 in 10.0 mi North 12.7 mph - N/A   Scattered Clouds
2:35 PM 66.2 °F 46.4 °F 49% 30.08 in 10.0 mi NNW 13.8 mph - N/A   Scattered Clouds
2:55 PM 66.2 °F 46.4 °F 49% 30.08 in 10.0 mi NNW 15.0 mph 20.7 mph N/A   Mostly Cloudy
3:15 PM 68.0 °F 46.4 °F 46% 30.07 in 10.0 mi North 15.0 mph 19.6 mph N/A   Mostly Cloudy
3:35 PM 69.8 °F 46.4 °F 43% 30.08 in 10.0 mi NNW 15.0 mph 19.6 mph N/A   Mostly Cloudy
3:55 PM 69.8 °F 48.2 °F 46% 30.07 in 10.0 mi North 12.7 mph 17.3 mph N/A   Scattered Clouds
4:15 PM 69.8 °F 46.4 °F 43% 30.07 in 10.0 mi NNW 10.4 mph 19.6 mph N/A   Mostly Cloudy
4:35 PM 69.8 °F 46.4 °F 43% 30.07 in 10.0 mi NNW 13.8 mph 19.6 mph N/A   Mostly Cloudy
4:55 PM 69.8 °F 46.4 °F 43% 30.07 in 10.0 mi North 11.5 mph - N/A   Partly Cloudy
5:15 PM 69.8 °F 46.4 °F 43% 30.06 in 10.0 mi NNW 8.1 mph 20.7 mph N/A   Partly Cloudy
5:35 PM 69.8 °F 46.4 °F 43% 30.06 in 10.0 mi NNW 9.2 mph - N/A   Mostly Cloudy
5:55 PM 69.8 °F 46.4 °F 43% 30.05 in 10.0 mi NNW 11.5 mph 24.2 mph N/A   Scattered Clouds
6:15 PM 69.8 °F 46.4 °F 43% 30.05 in 10.0 mi NNW 12.7 mph 17.3 mph N/A   Scattered Clouds
6:35 PM 66.2 °F 46.4 °F 49% 30.05 in 10.0 mi North 12.7 mph 18.4 mph N/A   Mostly Cloudy
6:55 PM 68.0 °F 46.4 °F 46% 30.04 in 10.0 mi North 15.0 mph 19.6 mph N/A   Scattered Clouds
7:15 PM 66.2 °F 46.4 °F 49% 30.05 in 10.0 mi North 13.8 mph - N/A   Partly Cloudy
7:35 PM 66.2 °F 44.6 °F 46% 30.05 in 10.0 mi North 15.0 mph - N/A   Partly Cloudy
7:55 PM 66.2 °F 44.6 °F 46% 30.06 in 10.0 mi NNW 11.5 mph - N/A   Mostly Cloudy
8:15 PM 64.4 °F 44.6 °F 49% 30.06 in 10.0 mi NNW 12.7 mph - N/A   Mostly Cloudy
8:35 PM 62.6 °F 44.6 °F 52% 30.07 in 10.0 mi North 10.4 mph - N/A   Partly Cloudy
8:55 PM 62.6 °F 44.6 °F 52% 30.07 in 10.0 mi North 11.5 mph - N/A   Clear
9:15 PM 59.0 °F 46.4 °F 63% 30.07 in 10.0 mi North 6.9 mph - N/A   Clear
9:35 PM 60.8 °F 46.4 °F 59% 30.08 in 10.0 mi North 6.9 mph - N/A   Clear
9:55 PM 59.0 °F 46.4 °F 63% 30.08 in 10.0 mi North 8.1 mph - N/A   Clear
10:15 PM 57.2 °F 46.4 °F 67% 30.09 in 10.0 mi North 6.9 mph - N/A   Clear
10:35 PM 57.2 °F 46.4 °F 67% 30.10 in 10.0 mi North 8.1 mph - N/A   Clear
10:55 PM 57.2 °F 46.4 °F 67% 30.10 in 10.0 mi North 8.1 mph - N/A   Clear
11:15 PM 55.4 °F 46.4 °F 72% 30.10 in 10.0 mi North 6.9 mph - N/A   Clear
11:35 PM 55.4 °F 46.4 °F 72% 30.10 in 10.0 mi NNW 5.8 mph - N/A   Mostly Cloudy
11:55 PM 55.4 °F 46.4 °F 72% 30.10 in 10.0 mi NNW 4.6 mph - N/A   Overcast